This demonstration page uses our WeatherBlox Daily Observations layout. Learn more.

Left ArrowRight Arrow

Hourly Observations for March 31, 2022

Temp ( °F °C ) Dew Point ( °F °C ) Humidity (%) Winds ( mph kmh ) Pressure ( in mb ) Visibility ( mi km ) Precip ( " mm )
12:59 am 00:59 Mostly Cloudy 64 17.8 57 13.9 78 78 S 15 24 29.97 1015 10 16 0.00 0.00
1:59 am 01:59 Mostly Cloudy 63 17.2 57 13.9 81 81 S 12 19 29.96 1015 10 16 0.00 0.00
2:59 am 02:59 Partly Cloudy 63 17.2 57 13.9 81 81 S 16 26 29.93 1014 10 16 0.00 0.00
3:59 am 03:59 Partly Cloudy 63 17.2 57 13.9 81 81 S 15 24 29.93 1013 10 16 0.00 0.00
4:59 am 04:59 Partly Cloudy 63 17.2 57 13.9 81 81 S 15 24 29.91 1013 10 16 0.00 0.00
5:59 am 05:59 Partly Cloudy 64 17.8 58 14.4 81 81 S 13 20 29.89 1012 9 14 0.00 0.00
6:59 am 06:59 Partly Cloudy 65 18.3 58 14.4 78 78 S 15 24 29.88 1012 8 13 0.00 0.00
7:59 am 07:59 Cloudy 66 18.9 58 14.4 75 75 S 14 22 29.87 1011 7 11 0.00 0.00
8:59 am 08:59 Cloudy 68 20 59 15 73 73 S 14 22 29.86 1011 8 13 0.00 0.00
9:59 am 09:59 Cloudy 70 21.1 59 15 68 68 S 16 26 29.85 1011 7 11 0.00 0.00
10:59 am 10:59 Cloudy 71 21.7 60 15.6 68 68 S 15 24 29.83 1010 7 11 0.00 0.00
11:59 am 11:59 Cloudy 73 22.8 60 15.6 64 64 SSW 18 30 29.81 1009 8 13 0.00 0.00
12:59 pm 12:59 Cloudy 73 22.8 61 16.1 66 66 S 14 22 29.79 1009 8 13 0.00 0.00
1:59 pm 13:59 Cloudy 73 22.8 61 16.1 66 66 S 14 22 29.75 1008 8 13 0.00 0.00
2:59 pm 14:59 Cloudy 74 23.3 61 16.1 64 64 S 15 24 29.71 1006 8 13 0.00 0.00
3:59 pm 15:59 Cloudy 74 23.3 62 16.7 67 67 S 16 26 29.67 1005 8 13 0.00 0.00
4:40 pm 16:40 Cloudy with Light Rain 70 21.1 64 17.8 82 82 S 16 26 29.65 1004 2 3 0.07 1.78
4:49 pm 16:49 Cloudy with Rain 69 20.6 65 18.3 87 87 S 12 19 29.67 1005 2 2 0.14 3.56
4:56 pm 16:56 Cloudy with Heavy Rain 70 21 64 18 83 83 S 15 24 29.67 1005 1 1 0.24 6.10
4:59 pm 16:59 Cloudy with Heavy Rain 69 20.6 65 18.3 87 87 SSW 13 20 29.67 1005 1 1 0.31 7.87
5:08 pm 17:08 Cloudy with Rain 68 20 65 18.3 90 90 SSW 12 19 29.66 1004 1 2 0.04 1.02
5:11 pm 17:11 Cloudy with Light Rain 68 20 65 18.3 90 90 SSW 12 19 29.66 1004 2 3 0.05 1.27
5:24 pm 17:24 Cloudy with Light Rain 68 20 65 18.3 90 90 SSW 9 15 29.64 1004 5 8 0.06 1.52
5:59 pm 17:59 Cloudy 69 20.6 65 18.3 87 87 SSE 10 17 29.61 1003 9 14 0.06 1.52
6:59 pm 18:59 Mostly Cloudy 71 21.7 64 17.8 79 79 SSW 13 20 29.60 1002 7 11 0.00 0.00
7:57 pm 19:57 Cloudy with Rain 70 21 64 18 83 83 SSW 14 22 29.59 1002 3 4 0.06 1.52
7:59 pm 19:59 Cloudy with Rain 69 20.6 65 18.3 87 87 SSW 15 24 29.59 1002 3 4 0.07 1.78
8:07 pm 20:07 Cloudy with Light Rain 69 20.6 65 18.3 87 87 S 14 22 29.59 1002 6 10 0.00 0.00
8:59 pm 20:59 Mostly Cloudy 70 21.1 65 18.3 84 84 SSW 12 19 29.60 1002 8 13 0.00 0.00
9:59 pm 21:59 Mostly Cloudy 72 22.2 64 17.8 76 76 SSW 16 26 29.61 1003 10 16 0.00 0.00
10:59 pm 22:59 Partly Cloudy 71 21.7 63 17.2 76 76 SW 12 19 29.61 1003 10 16 0.00 0.00
11:59 pm 23:59 Mostly Cloudy 70 21.1 62 16.7 76 76 SW 14 22 29.62 1003 10 16 0.00 0.00

Powered by AerisWeather